Location: Br�ttisellen
(47.4227°N, 8.6287°E)
Time: 09:08:42
(UTC+00:00)

IRIDIUM 104 - Pass Details

Date: 09 April 2020
Orbit: 776 x 779 km, 86.4° (Epoch: 24 May)

Event Time Altitude Azimuth Distance (km) Brightness Sun altitude
Rises 18:38:04 0° 356° (N) 3,275 7.9 -5.9°
Reaches altitude 10° 18:40:25 10° 357° (N) 2,342 7.1 -6.3°
Maximum altitude 18:45:41 89° 80° (E) 785 4.4 -7.1°
Drops below altitude 10° 18:50:54 10° 178° (S) 2,322 6.6 -7.9°
Sets 18:53:13 0° 178° (S) 3,245 7.3 -8.3°
